Home   Weather   Brighton   Past weeks

Flag for United Kingdom Past Weather in Brighton, England, United Kingdom — Yesterday and Last 2 Weeks

Now
54 °F

Partly sunny.


Feels Like: 52 °F
Forecast: 51 / 54 °F
Wind: 6 mph from Southeast

Location: Shoreham Airport

Current Time: Dec 9, 2016 at 11:55:03 am

Latest Report: Dec 9, 2016 at 11:20 am


Visibility: 3 mi

Pressure: 30.33 "Hg

Humidity: 94%

Dew Point: 52 °F

Location of BrightonLocation

Past Weather in Brighton — Graph

°F

Brighton Temperature Yesterday

Maximum temperature yesterday: 54 °F (at 9:50 am)
Minimum temperature yesterday: 52 °F (at 7:50 am)
Average temperature yesterday: 53 °F

High & Low Weather Summary for the Past Weeks

 TemperatureHumidityPressure
High54 °F (Dec 6, 12:20 pm)100% (Nov 26, 9:20 am)30.60 "Hg (Nov 26, 9:20 am)
Low25 °F (Dec 1, 7:50 am)40% (Nov 28, 11:50 am)30.04 "Hg (Nov 25, 1:20 pm)
Average44 °F79%30.29 "Hg
* Reported Nov 24 10:20 am — Dec 9 10:20 am, Brighton, Weather by CustomWeather, © 2016

Note: Actual official high and low records may vary slightly from our data, if they occured in-between our weather recording intervals... More about our weather records

Advertising

Brighton Weather History for the Previous 24 Hours

Scroll right to see more
 ConditionsComfort  
Time TempWeatherWind HumidityBarometerVisibility
10:20 am
Fri, Dec 9
54 °FFog.5 mph94%30.33 "Hg2 mi
9:50 am52 °FFog.5 mph100%30.33 "Hg1 mi
9:20 am52 °FFog.5 mph100%30.33 "Hg1 mi
8:50 am52 °FDrizzle. Fog.6 mph100%30.33 "Hg1 mi
8:20 am52 °FDrizzle. Fog.6 mph100%30.33 "Hg1 mi
7:50 am52 °FFog.9 mph100%30.33 "Hg1 mi
7:50 pm
Thu, Dec 8
52 °FFog.9 mph94%30.33 "Hg3 mi
6:50 pm52 °FFog.9 mph100%30.33 "Hg3 mi
6:20 pm52 °FDrizzle. Fog.7 mph94%30.33 "Hg3 mi
5:50 pm52 °FFog.7 mph94%30.33 "Hg3 mi
5:20 pm52 °FFog.7 mph94%30.30 "Hg3 mi
4:50 pm52 °FFog.8 mph94%30.30 "Hg2 mi
4:20 pm52 °FFog.8 mph94%30.30 "Hg2 mi
3:50 pm52 °FFog.12 mph94%30.30 "Hg2 mi
3:20 pm54 °FFog.14 mph88%30.27 "Hg3 mi
2:50 pm54 °FPassing clouds.13 mph82%30.30 "Hg6 mi
2:20 pm54 °FPartly sunny.13 mph82%30.27 "Hg6 mi
1:50 pm54 °FScattered showers. Partly sunny.13 mph82%30.27 "Hg6 mi
1:20 pm54 °FScattered showers. Partly sunny.12 mph82%30.30 "HgN/A
12:50 pm54 °FPassing clouds.10 mph82%30.27 "HgN/A
11:50 am54 °FPartly sunny.8 mph88%30.30 "HgN/A
11:20 am54 °FScattered clouds.8 mph88%30.30 "HgN/A
Weather by CustomWeather, © 2016

See weather overviewHow to use our weather pages